FENGYUN 1C DEB

Satellite information

Favourite Embed

Satellite Type and Status

DEBRISIN ORBIT

Key statistics

Satellite FENGYUN 1C DEB at a glance.

Uptime

9666

Days in orbit

Revolutions

≈ 14.4

Per day

Orbit

SSO

Sun Synchronous Orbit

Inclination

98.3

Latest

Satellite identification and parameters

Extended collection of information and parameters for FENGYUN 1C DEB.

Object identification

Identified? True

Debris? True

Object name: FENGYUN 1C DEB

International designator: 1999-025EVJ

Object number (NORAD): 38818

Object ID (CCSDS): 38818

Country: PEOPLES REPUBLIC OF CHINA (PRC)

Current information (Y/N): Y

RCS size: SMALL

Orbital parameters

Period: 100.052 minutes

Inclination: 98.3079 deg

SMA: 7139.113 km

Apoapsis: 823.167 km

Periapsis: 698.789 km

RAAN: 352.8365 deg

Eccentricy: 0.008711

Argument of periapsis: 254.7724 deg

Mean anomaly: 286.6128 deg

Mean motion: 14.39250417 rev/day

Mean motion (dot): 0.00002142 rev/day2

B* drag term: 0.00067432 1/REarth

Two-line elements (TLE)

Creation date: Oct. 22, 2025, 6:36 a.m.

Reference frame: TEME

Reference center: EARTH

Epoch: Oct. 21, 2025, 10:08 p.m. UTC

TLE line 0: 0 FENGYUN 1C DEB

TLE line 1: 1 38818U 99025EVJ 25294.92286412 .00002142 00000-0 67432-3 0 9993

TLE line 2: 2 38818 98.3079 352.8365 0087110 254.7724 286.6128 14.39250417665024

Live tracking on map

Real-time ground track for satellite FENGYUN 1C DEB.

In-orbit conjunctions

A list of the most updated potential collisions computed for object FENGYUN 1C DEB.

Target Orbit TCA Probability of collision Miss distance Type
FENGYUN 1C DEB SSO 2025-09-11 13:58:14 0.0009506625 7.0 (m) DEBRIS
SL-12 DEB LEO 2025-08-22 21:11:47 0.0002921777 85.0 (m) DEBRIS
CZ-6A DEB SSO 2024-11-15 02:28:10 0.0001816101 478.0 (m) DEBRIS
THOR BURNER 2 R/B SSO 2024-11-13 15:11:42 0.0006084154 393.0 (m) ROCKET BODY

Associated space launch

Chinese polar orbiting meteorological satellite

FENGYUN 1C DEB was lifted into orbit during the mission ‘Long March 4B | Feng Yun 1C’, on board a Long March 4B space rocket.

The launch took place on May 10, 1999, 1:33 a.m. from Launch Complex 7.

For more information about the launch, click the button.

Launch to space Long March 4B | Feng Yun 1C
Long March 4B | Feng Yun 1C

Agency: N/A

Status: Launch Successful

Launch date: May 10, 1999, 1:33 a.m. UTC

Rocket: Long March 4B

Launch pad: Launch Complex 7

Location: Taiyuan Satellite Launch Center, People's Republic of China

...

Latest news about this satellite

There are no fresh news available about this satellite. Check back as we update our databases every day.


Newsletter sign-up

Weekly statistics, charts and insights to help you stay on top of the space industry.